Regional Weather Roundup
Issued by NWS Sioux Falls, SD

Home | Current Version | Previous Version | Graphics & Text | Print | Product List | Glossary On
Versions: 1 2 3 4 5 6 7 8 9 10 11 12 13 14 15 16 17 18 19 20 21 22 23 24 25 26 27 28 29 30 31 32 33 34 35 36 37 38 39 40 41 42 43 44 45 46 47 48 49 50
000
ASUS43 KFSD 230802
RWRFSD

WEATHER ROUNDUP FOR SE SOUTH DAKOTA/SW MINNESOTA/NW IOWA
NATIONAL WEATHER SERVICE SIOUX FALLS SD
300 AM CDT WED AUG 23 2017

NOTE: "FAIR" INDICATES FEW OR NO CLOUDS BELOW 12,000 FEET WITH NO
SIGNIFICANT WEATHER AND OR OBSTRUCTIONS TO VISIBILITY.


SDZ038>040-050-052>070-230900-
SOUTHEAST SOUTH DAKOTA

CITY           SKY/WX    TMP DP  RH WIND       PRES   REMARKS
BROOKINGS      CLEAR     52  50  93 CALM      30.15S
CHAMBERLAIN    CLEAR     56  54  91 E6        30.14S
HURON          PTCLDY    55  53  93 E3        30.14R
MADISON        FAIR      50  50 100 CALM      30.16R
MITCHELL       CLOUDY    55  51  86 CALM      30.14S
SIOUX FALLS    CLEAR     54  53  97 CALM      30.15S
WINNER         FAIR      59  54  83 SE5       30.12F
YANKTON        CLEAR     56  55  97 CALM      30.16S
$$

MNZ071-072-080-081-089-090-097-098-230900-
SOUTHWEST MINNESOTA

CITY           SKY/WX    TMP DP  RH WIND       PRES   REMARKS
FAIRMONT       CLEAR     54  50  86 W3        30.13S
JACKSON        CLEAR     52  48  87 CALM      30.15S
LUVERNE        PTCLDY    48  45  87 CALM      30.16R
MARSHALL       CLEAR     53  49  86 CALM      30.13S
MONTEVIDEO     CLEAR     52  48  87 NW7       30.12R
PIPESTONE      CLEAR     52  48  87 CALM      30.15S
REDWOOD FALLS  CLEAR     54  49  83 W6        30.11R
TRACY          CLEAR     55  51  85 SW7       30.13F
WINDOM         CLEAR     52  48  87 CALM      30.14S
WORTHINGTON    CLEAR     50  47  89 SW7       30.16R
$$

IAZ001>003-012>014-020>022-031-032-NEZ013-014-SDZ071-230900-
NORTHWEST IOWA

CITY           SKY/WX    TMP DP  RH WIND       PRES   REMARKS
CHEROKEE       CLEAR     50  50 100 CALM      30.16S
DENISON        CLEAR     52  52 100 CALM      30.18S
ESTHERVILLE    CLEAR     51  51 100 W7        30.13S
ORANGE CITY    CLEAR     57  54  88 CALM      30.16S
SHELDON        CLEAR     46  46 100 CALM      30.14S
SIOUX CITY     CLEAR     53  53 100 CALM      30.16S
SPENCER        CLEAR     50  48  93 CALM      30.15S
STORM LAKE     CLEAR     55  52  88 W9        30.16S
$$

ABBREVIATIONS USED IN REMARKS
   TC - TEMPERATURE IN CELSIUS
  WCI - WIND CHILL INDEX
   HX - HEAT INDEX
  VSB - VISIBILITY





USA.gov is the U.S. government's official web portal to all federal, state and local government web resources and services.